GFSMW_sfc_temp_000.txt.gz
Temp
81 81 78 75 73 72 71 70 69 68 67 64 62 62 61 63 64 65 66 64 64 64 62 60 60 60 58 57 57 55 54 52 54 52 51 52 56 56 59 59 61 62 63
77 78 77 73 71 70 70 69 69 68 67 66 65 64 63 64 65 64 63 64 63 63 63 61 60 59 57 56 56 55 52 52 53 49 49 46 51 54 56 58 59 59 61
72 74 74 71 70 68 67 70 69 69 67 65 66 64 63 62 61 62 62 62 63 63 62 61 59 58 57 55 54 54 53 50 52 53 48 45 44 48 54 54 56 55 57
74 74 73 71 70 68 68 68 69 69 69 66 64 61 61 60 62 60 63 64 62 61 62 61 60 58 57 55 55 57 52 51 48 51 56 51 50 47 46 50 52 54 54
72 71 71 72 70 69 66 66 67 67 68 66 63 62 59 60 60 59 61 60 61 62 63 61 59 56 55 54 53 53 52 51 50 50 49 49 50 50 48 45 49 51 53
70 71 72 72 71 69 67 66 66 68 67 65 63 60 58 58 57 57 55 57 57 56 57 58 54 54 53 52 51 51 51 50 50 50 50 50 48 48 48 47 48 48 51
68 68 69 70 69 68 68 67 67 66 67 64 63 61 58 57 57 57 55 55 53 54 53 53 52 52 51 51 51 50 49 49 49 49 49 51 50 51 51 49 48 47 52
69 69 70 69 69 68 68 68 68 67 67 65 63 61 60 58 57 56 54 52 52 52 54 53 52 52 52 50 49 48 48 48 47 48 49 49 50 51 52 50 48 45 48
68 70 70 69 68 67 66 64 66 67 66 64 61 60 58 57 55 55 53 52 53 55 53 52 51 50 49 48 48 46 47 48 47 47 47 48 49 49 50 51 50 46 41
68 69 68 67 67 68 68 66 64 64 63 63 60 57 55 54 53 53 52 52 51 52 51 50 50 49 48 48 46 45 46 45 46 48 46 47 48 48 49 50 50 50 46
68 68 68 68 66 66 65 65 63 62 60 59 54 52 53 53 52 52 51 51 51 50 50 49 48 48 48 47 45 45 45 45 45 45 45 46 47 46 47 47 48 47 47
68 67 67 67 65 63 63 63 61 60 58 57 53 52 52 52 50 50 50 51 49 50 48 49 49 48 48 46 45 44 45 44 43 44 44 44 49 45 45 45 45 46 47
65 65 66 63 62 61 59 61 61 59 57 55 52 51 50 50 49 49 49 49 49 48 48 49 47 46 45 45 45 45 44 43 43 43 42 43 43 42 43 44 44 45 48
64 64 62 61 60 59 58 60 59 58 56 55 53 50 49 50 49 49 48 48 48 47 46 46 45 44 45 45 45 45 43 42 42 41 40 40 39 38 38 39 39 41 40
61 58 57 58 58 57 57 58 58 57 56 54 52 51 49 49 49 48 47 47 46 46 45 44 43 43 44 46 42 41 38 37 37 37 37 37 37 39 38 37 36 36 36
55 55 57 55 55 56 56 55 56 56 55 52 48 48 48 49 48 46 46 45 44 43 43 41 41 40 45 42 40 37 35 35 34 33 34 35 36 36 37 37 37 36 33
53 55 53 53 55 55 53 52 53 51 48 47 46 46 47 48 46 46 45 42 40 40 39 39 39 39 39 40 39 37 34 33 32 32 32 33 36 36 36 36 36 36 37
52 52 53 55 55 52 49 48 49 50 47 46 46 48 48 46 46 44 42 40 39 38 38 37 37 36 38 37 37 36 32 31 31 31 32 32 32 33 34 34 33 34 35
53 52 56 54 50 48 47 45 45 45 45 48 49 49 47 45 44 41 39 38 37 37 37 37 35 34 34 36 35 34 31 30 30 32 33 33 32 34 36 33 31 30 32
54 55 52 50 48 46 48 48 48 48 48 49 47 47 46 44 42 39 37 37 37 36 35 34 34 34 31 34 35 34 32 30 30 33 33 34 33 33 33 31 30 29 31
55 54 50 46 47 50 50 49 50 49 48 47 46 46 45 43 41 39 38 37 36 33 31 28 30 31 32 32 35 36 32 30 29 30 30 32 34 34 33 33 31 30 33
52 49 47 47 49 50 49 49 47 47 47 46 44 43 42 42 42 37 36 36 34 30 27 27 28 30 30 34 34 33 32 31 29 28 30 31 33 33 33 32 32 32 31
46 47 47 47 48 50 50 47 44 46 44 43 41 40 40 39 39 35 34 34 33 30 28 29 27 27 30 30 33 33 32 31 28 29 30 32 32 33 31 32 32 31 29
43 46 45 46 46 49 47 45 44 44 43 39 37 37 35 35 35 36 35 33 30 28 27 26 26 27 28 28 29 29 30 31 30 30 30 29 29 29 30 30 31 31 31
44 45 45 45 46 44 43 44 41 41 38 35 35 35 34 33 34 34 33 31 29 29 27 27 26 25 24 26 30 30 30 30 30 29 30 29 28 28 28 29 31 29 28
45 46 46 47 46 43 42 41 40 36 33 32 33 32 31 31 33 33 32 35 33 33 33 32 28 27 29 30 31 31 32 32 31 29 26 25 25 26 26 27 29 30 27

GFSMW_sfc_temp_003.txt.gz
Temp
67 67 65 64 63 62 64 64 62 61 60 58 56 56 55 57 56 58 59 59 58 60 58 55 55 55 54 53 53 52 51 50 50 48 48 49 51 51 53 53 55 58 61
65 67 65 61 62 62 62 62 62 61 60 58 57 57 56 56 57 58 57 58 58 58 58 56 55 55 53 54 53 51 49 49 50 47 45 42 47 49 52 53 54 55 57
63 65 66 62 60 60 61 62 62 61 59 60 58 56 55 55 56 56 55 56 58 58 58 56 54 54 52 51 51 51 50 47 49 49 46 44 41 45 49 50 51 51 52
64 64 63 60 59 60 60 63 63 62 61 58 57 56 55 55 56 56 56 56 57 57 58 58 56 54 52 51 50 53 49 48 45 47 52 48 47 44 44 47 49 52 52
61 63 60 61 61 60 58 60 61 62 62 59 56 56 54 54 56 56 56 54 54 56 57 55 53 52 50 51 49 48 48 47 46 46 45 46 47 46 45 43 47 48 51
60 61 61 63 62 60 58 57 58 60 60 60 59 56 56 58 54 53 52 52 52 52 52 53 50 49 49 50 49 49 48 46 46 46 45 44 43 45 45 44 45 45 45
58 59 58 61 60 59 59 58 58 58 59 58 57 57 57 57 56 53 50 49 49 49 50 51 50 50 50 50 50 49 47 46 45 44 46 46 47 47 47 46 45 44 49
61 59 58 59 58 58 58 59 60 60 60 57 56 56 56 56 58 54 50 47 47 48 50 49 49 50 50 50 50 49 46 44 45 43 42 44 46 47 47 45 44 42 44
60 57 58 58 57 57 57 55 56 58 58 55 54 51 50 50 47 47 47 47 49 51 49 48 48 48 48 48 47 44 43 43 44 44 44 44 46 45 47 47 46 42 38
58 58 57 56 57 56 55 55 56 56 56 52 50 49 48 48 48 49 48 48 48 49 48 47 46 46 47 47 46 44 44 42 42 44 41 42 44 44 44 45 45 44 42
57 57 58 58 55 54 54 54 55 55 52 49 47 47 47 47 47 48 48 47 47 48 47 47 46 47 46 47 45 44 43 42 42 41 41 42 43 43 43 44 44 44 44
57 58 56 54 54 54 53 55 55 51 51 46 46 46 46 45 45 46 46 46 45 47 47 46 47 46 46 45 43 42 41 41 40 40 38 39 45 40 39 40 40 41 42
56 54 54 54 54 52 53 53 54 50 50 47 45 45 45 44 43 44 45 46 46 45 46 46 45 44 43 43 41 41 41 40 39 39 38 39 38 37 37 36 36 38 42
53 52 52 53 52 53 54 51 49 50 50 47 45 43 43 43 43 42 43 44 45 43 43 43 43 42 42 43 42 42 39 38 38 36 35 35 34 33 32 35 34 36 35
51 51 52 51 49 52 52 49 49 50 51 49 45 42 42 43 44 43 43 43 42 43 42 41 40 39 40 43 39 36 34 33 32 33 34 34 35 39 38 36 34 34 33
51 52 52 52 52 52 49 49 48 48 48 46 44 44 44 44 44 45 45 42 41 40 39 37 36 36 41 40 38 35 31 31 30 29 32 33 36 35 36 36 36 35 31
50 50 50 50 51 48 47 44 46 47 47 45 45 43 43 43 43 45 43 40 37 36 34 34 34 33 33 38 38 37 33 31 30 29 30 31 34 34 33 34 35 35 36
49 47 49 50 45 44 43 43 44 47 45 45 45 44 43 42 42 41 40 36 35 33 33 32 32 31 34 36 36 36 32 29 29 29 30 29 29 31 32 31 31 32 33
47 49 48 45 42 42 42 43 42 44 44 43 44 43 42 41 40 38 35 34 32 31 31 32 31 29 29 34 35 34 30 29 29 31 31 31 30 33 34 32 29 29 31
49 47 46 43 41 42 44 44 46 43 41 42 42 43 42 40 38 35 33 32 31 31 31 30 30 32 27 32 34 33 31 28 29 30 31 33 32 33 33 31 30 28 30
47 45 42 45 44 47 47 44 40 40 42 42 43 42 41 38 36 33 32 31 30 28 21 20 24 26 27 28 33 34 29 28 28 28 29 30 32 33 34 34 31 30 32
42 42 42 42 44 46 44 41 40 43 43 42 40 38 37 38 37 31 30 30 27 21 19 16 20 23 23 30 32 32 32 31 27 27 29 29 31 32 32 32 32 32 31
39 42 40 44 46 45 43 40 40 42 39 37 35 34 35 35 33 30 28 27 25 20 18 22 22 24 27 27 31 31 31 31 29 30 30 31 32 31 30 31 31 31 30
38 40 42 43 42 42 41 40 39 38 37 33 32 33 30 30 29 30 29 26 19 17 23 21 23 25 26 26 27 28 30 31 30 29 29 29 29 28 28 27 30 30 30
39 41 41 41 40 39 37 39 37 36 32 31 31 29 28 28 28 29 28 24 23 22 25 25 25 24 23 25 29 30 29 29 29 27 26 24 24 25 26 26 27 28 26
39 41 43 40 39 38 36 36 34 32 29 29 28 25 23 24 26 26 27 32 31 33 32 32 27 26 28 29 31 31 31 31 30 26 23 22 22 21 23 23 24 27 27

GFSMW_sfc_temp_006.txt.gz
Temp
57 60 60 60 59 59 61 60 60 60 57 55 54 53 54 54 54 54 57 56 57 57 55 53 53 52 51 51 50 50 49 48 48 46 47 47 48 49 52 50 50 52 56
60 61 60 56 60 59 60 60 60 59 58 55 55 55 54 54 56 55 54 56 56 55 55 53 52 52 50 50 50 50 47 47 47 45 42 41 46 47 49 51 50 49 51
60 60 60 58 56 58 59 61 60 60 58 57 55 53 52 52 52 53 53 54 55 56 55 54 52 51 50 49 49 49 47 45 46 47 45 39 38 44 48 48 49 49 48
60 61 59 56 56 58 57 58 60 59 59 57 54 53 58 57 59 59 54 54 56 56 55 54 52 50 49 48 48 49 46 45 43 44 48 45 42 39 41 46 49 50 51
58 57 57 58 60 59 57 57 58 58 60 57 55 53 54 56 58 51 52 51 52 53 53 53 50 49 49 48 47 48 45 45 43 43 42 42 42 41 40 39 45 50 50
55 58 58 57 57 56 56 57 56 58 58 57 56 52 52 55 52 52 51 49 47 47 48 50 48 47 47 47 47 47 45 45 46 45 45 42 40 42 40 40 41 43 48
57 56 57 55 55 54 54 56 56 57 59 55 54 54 52 53 53 54 53 50 49 47 48 48 48 47 47 46 45 47 46 45 45 42 42 45 44 45 44 41 40 40 46
56 55 55 54 54 55 55 56 58 56 57 55 54 52 51 49 49 49 47 45 47 46 47 46 45 46 47 45 46 45 44 44 42 43 44 44 45 45 45 43 40 38 40
54 54 55 54 52 52 53 53 52 56 55 53 50 47 46 46 44 44 44 45 46 48 46 45 44 44 45 45 45 42 42 43 42 41 41 42 43 43 44 43 42 39 34
54 55 54 53 53 52 52 52 53 54 52 49 48 47 45 45 45 44 44 44 45 46 45 45 44 44 45 45 44 42 42 41 40 41 39 41 42 42 42 42 42 40 38
51 52 54 56 57 56 55 52 50 50 48 48 46 45 45 45 44 43 43 44 45 46 46 45 44 44 44 44 42 41 41 39 39 39 39 40 41 40 39 39 40 39 38
51 51 52 52 52 51 49 50 49 48 47 47 45 44 43 43 42 42 43 43 44 46 46 45 45 44 44 43 41 39 39 37 37 37 38 39 43 39 37 36 36 37 37
48 49 50 51 50 50 49 50 48 47 47 46 43 42 42 41 40 41 42 44 44 44 44 44 43 43 42 41 40 39 39 38 38 38 36 36 35 33 32 32 32 33 37
50 49 48 49 49 49 48 48 46 46 46 46 42 41 41 40 40 40 41 43 43 42 42 42 42 41 40 40 39 39 36 34 34 33 33 33 33 31 31 32 31 33 32
49 48 48 47 47 47 47 46 45 46 45 44 42 40 41 41 41 41 41 43 43 42 41 39 38 37 38 40 35 33 31 30 30 31 32 33 34 37 36 35 33 32 31
49 50 49 48 48 48 46 45 44 44 44 44 44 44 44 43 42 42 42 42 40 40 38 36 35 34 38 38 37 35 30 31 30 29 31 32 34 34 35 36 36 34 30
48 48 47 47 46 44 45 42 42 42 45 45 44 43 43 42 42 42 41 39 36 35 34 33 32 31 31 37 37 36 32 30 30 29 29 30 33 33 32 33 34 34 35
49 48 46 45 44 43 42 41 41 42 42 42 43 42 41 40 39 38 37 34 34 33 31 31 31 30 32 35 36 35 30 28 29 29 29 29 29 30 31 30 29 30 31
48 47 44 43 41 40 40 40 40 41 43 39 39 39 38 38 38 35 32 32 30 30 30 30 29 28 29 34 34 33 26 27 27 30 30 31 31 33 35 32 29 30 30
45 43 43 41 39 40 41 39 39 39 39 40 41 41 40 38 35 33 32 30 29 30 29 29 28 30 25 30 32 32 29 26 26 28 29 32 31 32 33 30 29 28 29
42 42 41 40 40 45 44 40 39 38 41 41 40 39 38 37 34 32 30 29 28 26 19 18 21 24 26 26 31 33 29 26 26 27 28 29 31 32 32 31 29 29 31
41 41 39 39 44 44 41 39 36 41 40 39 37 36 35 35 34 30 29 28 25 20 19 15 17 21 21 28 30 32 31 31 27 27 28 29 31 32 32 31 31 32 31
37 39 38 42 42 42 40 38 36 38 36 35 33 32 33 32 31 28 26 26 23 18 18 21 19 22 25 25 30 30 30 31 29 29 30 31 31 30 29 31 31 29 29
36 38 40 41 38 39 38 36 36 35 33 31 31 31 29 29 28 28 28 25 18 17 23 21 21 23 23 25 26 27 28 30 29 27 26 26 26 24 24 26 27 27 28
37 38 39 37 38 37 35 36 35 33 32 30 30 29 27 26 27 28 26 24 23 21 21 20 25 21 21 24 29 29 28 29 28 26 23 23 22 22 23 24 25 26 28
38 39 39 39 38 36 35 35 34 32 30 30 29 24 23 22 25 25 26 31 29 31 31 31 26 25 28 29 29 29 30 30 29 26 20 20 20 20 22 21 22 24 25

GFSMW_sfc_temp_009.txt.gz
Temp
54 56 56 56 56 56 57 58 58 57 54 53 52 52 52 52 52 52 55 55 55 55 53 52 52 50 50 50 48 48 47 46 45 45 45 45 46 47 47 48 48 48 50
56 57 56 54 57 57 57 57 58 58 56 54 54 53 52 52 53 53 53 55 55 55 54 53 53 52 50 48 48 47 45 46 45 44 41 40 43 44 48 47 48 47 47
56 57 58 56 54 55 56 58 58 58 57 55 53 52 51 51 50 52 51 54 55 57 54 54 53 52 51 50 48 47 46 44 44 45 43 38 36 39 44 46 46 45 46
57 57 57 56 55 57 55 56 57 56 57 55 54 51 54 55 59 57 56 56 53 56 57 56 53 52 48 46 45 47 45 44 42 43 46 43 42 36 35 41 43 45 46
55 57 59 57 55 55 54 53 54 56 56 55 54 52 50 53 55 54 50 51 51 52 54 54 52 49 48 48 46 46 44 44 43 43 41 40 39 39 36 36 41 43 44
56 55 57 55 54 53 52 53 55 56 57 56 54 51 49 50 49 50 48 50 47 46 48 49 49 48 47 46 44 46 46 44 43 44 43 42 41 39 36 34 38 39 42
53 53 50 53 53 51 51 53 53 53 53 52 52 52 50 48 47 48 48 46 43 42 43 46 45 44 44 45 46 44 44 44 43 42 43 43 42 42 39 37 38 37 40
53 52 52 51 50 50 51 51 52 52 52 51 51 49 48 46 47 45 45 43 42 41 43 43 45 45 45 45 45 44 42 42 41 42 42 42 41 41 40 39 36 36 38
50 50 50 51 50 50 51 50 50 51 51 49 47 47 46 45 45 43 41 41 42 43 41 42 43 44 44 43 43 42 41 41 42 41 40 38 39 39 40 41 40 36 32
50 50 50 51 52 51 50 49 50 49 48 47 47 47 45 44 43 41 41 41 41 42 43 44 45 45 44 43 43 41 42 41 40 41 38 38 39 39 39 40 40 39 36
48 49 50 51 50 50 50 48 48 47 46 45 45 44 43 43 41 41 41 41 43 45 44 45 44 43 42 43 41 40 40 39 38 38 38 38 38 38 37 37 38 38 37
49 50 50 50 49 48 48 48 46 45 45 45 44 44 42 41 40 40 42 43 44 45 44 43 43 42 42 41 40 38 38 37 36 36 36 36 41 36 35 34 34 34 34
50 50 49 51 50 49 48 47 46 44 44 45 44 43 40 39 39 41 43 44 44 45 44 43 42 41 40 39 37 37 37 36 35 35 34 34 33 32 31 32 31 31 35
51 50 50 48 48 48 47 46 44 44 44 44 43 39 38 38 38 40 41 41 43 42 42 41 40 39 38 38 37 36 33 32 32 32 32 31 30 30 30 31 30 32 30
49 48 49 48 47 46 45 44 44 43 43 42 40 38 41 42 40 40 40 42 43 43 40 38 37 36 36 38 34 32 32 31 30 31 31 31 33 37 35 34 32 30 30
47 48 49 48 46 46 44 43 43 41 41 41 42 43 43 43 42 42 41 40 40 39 37 35 34 33 36 37 37 35 31 30 30 29 30 30 33 32 34 34 35 34 30
47 47 47 46 45 44 43 41 41 41 41 41 42 41 41 41 41 41 40 37 36 35 34 33 32 31 31 36 36 36 31 29 29 28 28 30 32 32 31 32 33 33 34
48 48 47 43 44 43 41 39 39 39 40 40 38 41 40 39 37 36 35 33 32 32 31 30 30 29 31 34 35 34 29 27 28 28 29 28 28 30 31 31 30 31 32
48 45 44 43 41 39 38 38 38 38 38 39 39 39 39 37 35 34 32 31 29 30 29 30 29 28 28 32 33 31 24 25 25 28 29 29 28 31 33 30 28 28 30
46 44 43 41 38 39 39 39 38 40 37 40 40 38 37 35 33 31 30 31 30 29 29 28 28 28 25 29 32 31 26 25 26 28 29 31 30 31 32 29 28 26 28
43 43 40 38 39 41 40 38 37 36 38 38 37 36 36 34 32 31 30 28 27 25 19 18 21 23 25 25 30 32 29 26 26 26 28 29 31 31 32 32 29 29 30
39 39 37 37 39 39 38 36 34 36 36 35 34 33 32 32 32 29 27 27 25 21 19 14 17 21 20 27 29 31 31 30 26 27 28 29 31 31 31 30 31 32 30
37 37 36 38 42 40 38 36 34 36 34 32 31 30 31 30 29 27 25 26 23 19 18 22 21 22 24 23 28 29 30 30 28 29 29 30 30 29 27 28 29 27 27
35 36 36 36 35 39 38 38 36 35 32 31 30 30 28 28 27 28 28 25 20 18 22 20 21 22 21 22 24 27 28 30 29 27 26 25 26 24 24 25 26 26 26
35 36 36 35 35 36 35 36 35 34 32 31 30 28 27 26 27 28 26 25 23 20 20 18 22 21 20 23 28 27 27 28 27 25 22 23 21 20 21 22 23 24 24
36 37 37 35 36 34 33 34 34 32 31 30 28 24 22 22 25 25 25 30 28 30 30 30 26 25 27 28 28 28 28 28 27 24 21 19 18 17 19 19 19 20 22

GFSMW_sfc_temp_012.txt.gz
Temp
52 52 53 53 54 54 56 57 56 56 53 52 52 51 52 52 52 52 53 53 54 54 53 52 51 50 50 51 48 46 46 45 45 45 45 45 46 46 47 48 48 50 50
52 55 54 52 55 56 56 56 56 56 54 52 52 51 50 51 51 52 52 53 53 54 54 53 52 51 51 47 47 46 44 45 44 44 41 41 43 44 46 46 48 47 48
55 54 55 54 53 55 55 55 55 55 54 54 53 52 51 51 51 53 51 54 53 54 53 55 54 52 51 51 50 48 45 46 43 44 44 37 37 38 43 45 46 46 45
53 55 55 52 52 54 53 54 55 55 56 54 52 50 49 49 52 52 53 55 52 51 53 53 52 51 50 48 45 46 45 43 41 42 46 43 42 38 37 42 45 46 46
54 53 53 54 51 51 50 50 53 54 54 52 51 49 50 52 50 50 48 50 50 48 50 50 50 47 45 45 47 44 44 45 43 44 42 40 40 40 38 36 40 44 45
52 55 52 52 50 50 50 50 51 52 53 52 52 49 46 46 46 47 46 47 46 44 44 46 44 43 42 42 42 44 45 44 44 43 43 42 40 40 38 36 38 38 43
50 50 48 49 50 50 50 51 50 51 52 53 50 47 46 45 45 46 46 45 43 40 39 41 42 42 41 42 43 42 43 42 41 41 41 42 40 40 39 38 37 36 39
48 47 48 48 49 50 50 50 50 51 50 48 47 47 47 45 46 45 44 41 40 38 40 41 41 42 42 42 44 43 42 41 39 38 39 40 41 41 42 41 38 35 37
48 48 50 50 49 49 50 48 48 48 48 46 45 45 45 45 44 43 40 39 39 41 40 41 41 42 45 44 43 41 40 39 39 39 39 39 40 40 40 41 40 36 32
49 49 50 50 51 50 49 48 47 47 47 45 45 46 45 45 43 40 39 39 40 41 41 42 42 42 43 44 42 41 41 40 40 40 39 39 40 40 39 40 39 37 36
49 49 49 49 49 48 48 47 47 46 46 45 43 43 45 44 41 39 38 39 40 41 42 44 43 43 41 41 40 40 40 39 39 39 38 37 37 36 36 36 36 36 35
49 48 48 48 48 48 48 47 46 45 44 43 43 43 42 39 38 38 39 40 42 43 43 44 43 42 41 40 39 37 37 36 35 35 34 34 39 35 35 34 33 33 34
48 49 50 48 48 47 47 46 46 44 44 43 42 40 39 37 37 38 39 41 41 43 43 43 43 41 40 38 37 36 35 34 34 33 32 32 32 31 31 32 31 32 35
48 50 48 47 47 47 46 45 44 44 43 41 39 38 37 36 36 37 38 40 41 42 41 41 39 38 37 37 37 36 34 32 32 32 31 31 30 30 30 31 31 32 31
47 46 45 48 49 49 47 45 44 42 41 40 39 38 39 38 38 38 39 40 40 40 39 38 37 36 36 38 34 33 32 31 31 31 32 32 33 36 35 33 31 30 30
44 45 46 45 45 46 43 43 43 41 41 40 40 43 43 42 40 41 41 40 40 39 36 34 33 32 35 36 37 35 31 31 31 29 30 30 32 31 33 34 34 33 29
45 44 47 48 47 44 43 42 41 39 39 40 42 41 42 41 40 40 38 35 33 33 32 32 31 31 31 35 36 35 32 30 29 28 28 29 32 32 31 32 32 32 33
44 45 47 45 43 42 40 38 37 38 38 37 38 39 39 39 36 35 33 32 32 32 30 30 30 29 31 34 34 33 29 27 27 28 28 28 28 30 31 30 30 30 31
44 45 43 43 41 38 37 36 37 36 37 37 37 37 35 34 34 32 31 31 30 30 29 30 29 28 28 31 32 31 24 24 25 28 29 29 29 31 32 30 28 29 30
46 43 41 41 39 38 37 40 37 36 35 36 35 35 33 32 30 29 28 30 28 29 30 28 27 28 24 28 31 30 26 25 26 27 30 31 30 31 32 29 28 27 29
43 42 39 37 37 39 39 36 35 34 35 35 35 33 32 30 29 28 28 27 26 26 20 18 20 23 25 24 30 31 28 26 26 27 27 28 31 32 32 32 28 27 30
41 40 37 36 38 41 38 35 32 36 36 34 32 30 30 30 30 27 27 27 24 21 19 15 17 20 19 27 28 30 30 30 27 26 28 28 30 31 30 28 29 29 28
38 37 35 36 37 37 38 36 36 37 34 32 30 29 30 30 29 27 25 25 23 18 18 21 21 22 23 22 27 28 29 29 27 28 29 28 28 28 26 27 28 26 26
36 35 35 35 35 36 36 35 34 34 31 31 30 29 27 27 27 28 28 25 19 18 21 20 20 22 21 22 23 26 26 28 29 27 27 25 26 23 23 24 24 24 25
36 36 35 34 34 35 34 34 34 32 31 30 30 29 27 26 27 27 26 24 23 20 21 18 18 20 20 23 27 27 26 27 26 26 24 22 21 20 21 22 22 22 23
35 35 35 34 34 34 33 32 32 31 29 30 28 23 22 21 23 24 25 30 28 30 30 29 24 25 27 28 28 27 27 27 25 23 20 19 18 17 19 19 19 19 20

GFSMW_sfc_temp_015.txt.gz
Temp
65 65 64 65 66 66 68 69 69 67 67 67 67 67 67 68 68 69 66 65 66 65 64 65 65 64 63 63 63 62 60 60 61 59 61 61 61 61 63 63 64 63 64
65 63 64 65 64 66 67 66 66 65 65 66 66 65 64 66 65 65 65 65 64 64 64 63 64 64 62 62 61 59 60 60 61 59 59 56 60 60 60 62 61 60 62
66 65 66 65 64 64 63 64 64 64 64 63 66 66 65 65 66 67 67 67 64 63 62 62 62 62 62 60 61 61 59 59 60 59 59 55 53 59 59 57 60 59 59
66 65 65 64 61 61 61 63 64 65 64 63 63 60 61 60 63 62 63 63 62 62 61 60 60 60 60 59 59 61 58 57 57 56 57 55 55 53 53 55 57 58 57
62 62 60 60 60 60 60 61 63 63 62 61 60 60 59 60 60 60 59 59 61 60 59 57 57 57 58 57 55 56 55 56 56 54 53 52 53 52 50 50 53 54 55
60 60 60 61 61 60 60 61 62 62 62 61 60 58 57 56 57 58 58 59 59 58 55 54 53 53 52 52 52 51 50 50 50 50 48 48 47 47 45 42 42 43 52
57 58 59 60 61 61 60 61 61 61 60 59 57 57 56 56 55 56 57 55 55 55 52 52 51 51 51 51 51 48 45 43 41 40 39 39 37 38 38 37 39 41 49
56 57 58 59 60 59 59 60 59 59 59 58 57 56 57 56 55 55 54 52 52 51 50 51 52 51 51 51 48 44 42 41 40 39 39 38 39 39 39 38 37 38 43
56 58 59 59 60 59 58 57 57 58 58 57 55 55 54 54 54 53 52 50 50 50 51 52 52 50 49 47 46 45 41 41 41 41 42 41 42 44 45 45 44 41 38
58 60 61 60 59 59 59 56 59 57 57 57 55 54 54 54 52 51 49 49 49 50 50 50 51 51 51 50 48 48 47 45 45 45 44 44 44 46 45 44 45 45 43
58 60 60 60 59 58 59 58 57 56 56 55 53 52 52 51 49 48 48 48 50 50 50 50 50 48 47 48 48 48 47 46 46 46 46 45 46 46 46 46 46 45 44
57 58 58 58 57 58 58 57 56 55 53 52 52 50 49 48 47 47 48 48 49 49 49 49 46 45 48 47 45 44 45 44 44 45 44 44 45 43 44 44 42 43 44
57 57 57 56 56 57 56 56 54 52 52 52 50 48 47 46 46 46 47 48 48 48 47 46 44 43 43 44 45 44 44 44 43 42 41 40 40 40 41 41 41 41 42
55 55 55 54 53 53 52 51 51 52 51 49 48 46 45 45 45 46 46 46 47 46 46 44 40 39 41 43 43 42 42 41 41 40 39 39 39 39 39 39 39 39 39
53 51 50 51 51 51 51 51 51 50 49 48 47 46 45 45 44 45 46 47 47 47 46 43 42 41 41 42 40 41 40 39 39 39 39 39 38 36 37 37 38 38 37
47 49 50 51 50 49 49 48 48 47 46 45 45 45 44 45 46 46 46 45 44 43 41 40 39 39 39 36 36 37 38 38 37 36 37 37 36 36 34 34 34 35 34
46 46 48 49 48 48 48 46 46 46 45 44 45 45 45 45 44 44 43 41 40 41 40 39 39 38 38 35 35 34 37 36 35 35 35 36 37 36 36 34 33 32 33
43 47 49 48 48 48 47 45 45 45 44 44 44 44 43 42 41 41 40 40 40 39 38 38 38 37 37 33 33 33 35 34 34 35 35 35 34 34 32 33 33 34 35
47 50 50 48 47 46 46 45 45 44 44 43 43 42 41 40 40 39 38 38 38 37 37 37 36 35 35 33 32 32 32 32 32 34 34 35 34 33 33 32 30 33 35
51 49 49 47 46 47 46 44 45 43 41 42 42 41 40 39 38 37 37 37 37 36 36 34 35 33 32 31 31 32 32 29 31 33 34 33 33 31 31 31 30 29 33
49 50 47 45 45 46 46 43 42 41 43 42 41 40 39 38 38 37 37 37 36 34 31 30 31 31 31 31 30 31 30 30 30 31 32 33 30 30 31 31 30 29 31
48 48 45 44 46 46 44 43 43 45 44 41 39 39 38 38 37 37 37 36 35 32 30 29 30 32 30 30 30 30 30 30 29 29 31 32 29 29 29 29 29 29 28
47 46 44 43 44 45 44 42 44 43 41 40 39 39 38 37 37 36 35 34 34 31 30 30 29 29 31 31 30 29 29 30 29 30 29 28 28 28 28 27 27 28 29
44 44 43 42 42 45 43 43 43 42 40 39 38 38 37 36 37 36 35 34 32 30 29 28 27 28 28 29 30 30 30 30 29 29 29 27 26 27 28 28 28 28 28
43 42 41 41 42 43 41 42 41 40 38 37 37 36 35 34 34 34 34 32 32 30 28 28 28 25 25 27 28 27 27 27 27 27 26 25 24 26 26 27 27 27 28
41 40 41 40 40 40 39 39 38 38 37 36 36 34 33 33 33 33 32 32 29 29 29 29 27 27 27 27 27 26 26 25 25 24 22 21 22 23 24 24 24 26 25

GFSMW_sfc_temp_018.txt.gz
Temp
79 79 77 77 78 76 77 78 77 75 79 81 77 79 77 78 79 80 76 75 75 73 72 73 73 72 72 70 70 70 68 69 71 67 68 70 71 69 71 72 72 71 71
78 76 76 76 75 75 75 75 75 74 76 80 78 75 74 77 76 76 75 75 72 72 72 70 70 70 70 69 68 67 67 68 69 65 65 62 67 70 70 70 70 68 71
75 75 74 73 74 72 73 74 74 74 73 73 77 77 77 76 75 71 72 73 71 70 70 69 68 68 68 68 68 67 66 64 67 68 63 60 59 65 71 66 68 67 66
74 74 73 71 70 70 72 73 73 73 72 71 72 69 70 67 68 70 71 70 70 68 68 67 67 66 66 65 66 67 65 64 62 66 66 65 63 58 56 63 65 66 64
71 70 70 70 70 70 70 72 72 72 71 70 68 69 67 69 69 68 65 67 69 69 68 66 64 64 64 63 61 60 60 61 58 59 57 53 55 59 55 55 55 63 64
70 70 70 71 71 70 70 71 71 71 70 69 68 66 64 62 63 65 64 66 66 67 66 64 62 61 61 59 58 53 50 49 49 47 45 44 42 44 42 45 52 52 55
68 69 69 70 70 70 70 70 70 69 70 67 65 63 65 64 63 63 63 61 62 63 62 60 60 62 58 54 52 50 47 44 41 40 39 39 38 38 36 36 37 38 45
67 68 69 70 70 68 68 68 68 68 68 67 65 66 65 65 64 63 61 59 60 60 59 59 60 58 57 54 50 47 44 43 43 44 43 43 42 43 42 40 38 38 41
65 67 69 70 69 68 68 66 67 69 68 67 66 64 63 62 60 59 59 59 59 59 57 57 56 56 56 54 53 51 51 49 47 46 47 46 46 47 47 47 46 42 40
66 68 69 69 69 69 68 67 68 67 66 65 64 62 61 61 59 58 56 56 57 57 56 55 56 54 53 51 49 49 50 48 48 50 50 50 51 49 48 47 47 47 45
66 67 67 68 68 67 67 66 66 65 64 63 61 60 59 58 57 56 56 56 56 56 55 55 53 50 47 46 47 48 48 48 48 50 50 50 52 51 52 52 51 49 49
66 67 67 66 66 65 66 65 63 62 62 61 60 58 57 56 56 54 54 55 54 55 54 53 49 48 47 47 47 46 49 48 47 48 49 49 51 48 49 49 48 48 49
66 66 65 64 63 63 61 62 61 60 60 60 58 57 55 54 54 54 53 54 53 51 51 47 45 46 46 46 47 48 48 47 48 48 47 47 46 45 46 46 46 46 48
63 63 62 61 62 61 61 59 59 59 58 57 56 54 53 52 46 47 50 50 50 49 49 49 48 47 47 47 47 47 46 46 46 46 45 45 44 43 43 44 44 44 44
59 58 58 56 59 59 58 58 58 57 56 55 54 50 49 48 49 51 52 52 52 51 50 49 48 47 46 47 42 43 43 44 44 44 44 44 43 39 38 40 41 42 42
54 54 54 56 57 56 56 56 56 55 55 54 52 52 52 52 52 51 50 50 50 50 49 47 47 45 47 36 36 37 41 42 43 42 43 44 41 41 37 36 35 36 35
52 53 54 56 56 56 56 55 55 55 53 52 52 51 51 50 49 50 49 48 47 47 46 46 45 44 44 35 35 34 39 40 41 41 41 41 43 40 39 36 36 35 34
53 55 56 57 57 57 57 56 56 54 52 51 50 50 49 48 48 48 47 46 46 45 45 44 43 43 43 36 34 33 38 39 39 40 40 40 39 37 36 36 34 35 37
56 57 58 57 56 56 57 55 54 54 52 49 49 48 48 47 47 46 45 45 45 44 44 43 42 41 41 36 33 33 35 36 36 36 36 36 35 35 34 33 32 34 36
57 56 57 57 56 57 56 53 53 53 50 50 48 49 48 47 46 45 44 45 45 43 42 40 40 37 37 35 33 33 34 30 31 33 35 34 35 33 32 31 31 30 34
56 57 57 56 56 56 54 51 52 51 52 51 50 49 48 47 46 45 45 45 43 40 36 33 34 36 35 34 32 32 30 30 30 31 33 36 32 29 30 30 30 30 32
56 56 55 55 56 56 54 52 52 55 53 51 49 48 47 46 45 45 45 44 42 38 34 32 33 35 34 34 33 32 31 31 30 30 33 33 30 29 29 30 29 29 29
55 55 53 52 54 55 54 51 52 52 50 47 45 46 46 45 45 44 42 40 40 34 32 32 31 32 34 35 32 31 31 31 30 32 31 29 28 29 29 29 28 29 30
52 52 51 50 50 52 50 49 49 48 47 45 43 46 44 43 44 43 41 40 35 31 31 30 30 31 32 32 31 31 31 30 30 29 31 29 27 28 29 30 30 30 31
51 50 49 48 48 49 48 49 47 46 45 44 43 43 42 41 41 40 40 37 36 32 30 30 30 28 27 28 29 27 27 28 27 27 29 28 27 28 29 29 30 30 30
49 48 48 48 48 47 45 46 45 43 41 40 41 41 40 39 38 38 37 33 30 29 29 28 28 29 28 28 27 27 25 25 25 27 25 24 23 25 26 27 27 28 28

GFSMW_sfc_temp_021.txt.gz
Temp
85 84 82 83 83 82 83 83 82 78 81 82 79 80 79 81 81 82 79 77 77 75 73 74 74 73 72 72 71 71 69 70 72 70 70 71 72 72 73 74 74 73 73
79 79 79 79 78 78 79 80 79 78 80 82 79 77 76 78 79 79 77 77 74 73 73 70 70 71 70 69 69 68 67 69 70 66 66 62 67 72 72 72 72 70 73
77 78 77 76 76 76 77 78 78 77 76 76 80 78 78 78 77 76 76 76 74 72 70 69 69 68 68 68 68 67 66 64 67 68 64 58 58 65 71 69 69 69 70
78 77 76 75 74 74 76 76 76 76 76 74 74 71 72 71 73 73 74 72 71 71 71 70 69 66 66 65 65 67 64 63 61 65 67 63 59 52 53 66 64 65 65
75 74 74 74 74 74 74 75 76 75 74 73 71 71 69 71 71 69 67 68 70 70 70 69 67 64 64 64 62 60 58 59 56 54 52 54 57 57 48 48 56 58 61
74 74 75 76 75 74 74 74 75 76 75 73 71 68 66 66 66 67 66 67 67 67 67 67 65 63 62 61 57 55 52 50 50 48 45 42 39 39 38 38 40 38 47
72 73 73 74 74 73 73 73 74 73 74 71 70 69 68 67 65 65 65 62 63 63 63 62 61 62 59 56 54 52 51 48 45 45 44 43 40 39 38 37 37 37 41
71 72 72 72 73 73 73 72 71 71 73 72 70 69 68 67 65 64 62 60 60 61 62 61 60 57 54 52 51 51 49 50 49 48 48 48 49 49 48 44 40 39 44
70 72 73 73 73 72 72 71 70 71 71 69 68 66 66 64 63 61 60 60 60 60 60 59 55 54 52 52 51 50 50 49 49 50 49 49 50 50 50 48 45 40 36
70 72 72 72 72 72 72 71 71 70 67 66 65 65 63 63 61 60 58 58 58 59 55 54 53 52 52 50 50 49 50 48 46 46 45 45 47 47 47 47 47 45 41
69 71 71 69 71 70 69 69 69 67 65 66 65 63 62 61 60 59 58 58 58 57 56 55 52 51 49 48 47 47 47 47 48 49 47 47 50 50 51 51 51 50 49
69 68 68 67 66 66 68 67 66 65 65 64 63 61 61 60 59 58 56 54 54 54 53 50 45 45 47 49 47 46 47 45 46 47 47 47 50 49 49 50 48 48 49
68 67 66 66 65 65 66 65 64 63 63 62 61 60 60 57 54 54 52 53 54 54 54 51 48 48 48 49 50 50 49 48 47 47 47 47 47 46 47 47 47 47 48
63 63 65 65 65 64 64 63 62 61 62 61 59 58 55 52 53 53 53 53 54 53 53 53 52 51 51 50 50 49 46 46 47 47 47 46 46 45 44 45 44 45 44
63 63 61 61 62 63 62 62 61 61 61 58 58 56 55 54 53 53 52 53 53 53 53 51 51 50 50 50 45 44 42 43 44 45 46 46 45 41 41 42 40 40 40
60 56 57 60 61 61 61 60 60 59 59 57 56 57 54 52 51 51 51 52 51 51 51 49 49 48 50 36 36 37 40 40 41 42 44 45 44 44 39 38 37 37 36
52 51 57 60 61 61 61 59 60 60 59 56 57 54 51 50 50 51 51 50 49 49 48 48 48 46 47 36 36 35 39 38 39 41 42 43 46 42 43 40 37 36 35
52 57 60 60 61 62 62 61 61 59 58 57 55 53 51 49 50 51 50 49 49 47 47 46 46 45 45 36 35 34 37 38 38 40 40 40 40 40 37 37 36 37 38
58 60 61 61 62 62 62 61 59 58 57 56 55 53 50 50 50 49 48 48 47 46 46 46 43 41 41 37 34 34 34 34 35 36 37 37 36 36 36 34 32 34 36
61 61 62 61 61 61 60 59 58 57 55 56 55 53 51 50 49 49 47 48 47 46 45 42 40 37 36 37 35 34 33 30 32 34 35 35 35 34 33 33 32 30 33
60 62 61 60 60 60 59 56 56 55 56 57 55 53 51 48 50 48 48 47 46 44 40 36 38 38 36 36 36 34 32 32 31 31 33 35 30 30 31 31 30 30 31
61 61 59 58 58 59 57 56 55 57 56 54 52 48 43 46 49 47 47 46 44 41 37 33 34 37 35 36 35 32 32 32 30 30 33 33 31 31 30 29 30 29 29
59 59 57 55 56 56 56 53 53 54 51 49 46 44 46 46 47 45 44 44 43 39 33 33 32 33 36 36 35 32 31 31 29 31 30 30 29 29 29 30 30 29 30
56 57 55 53 52 54 54 53 52 48 47 44 45 45 44 44 46 45 45 43 39 34 33 32 31 32 32 33 33 31 30 29 29 29 29 30 29 29 30 30 31 32 31
55 54 52 52 52 53 52 52 48 47 44 44 44 44 44 43 41 42 43 40 38 34 32 32 30 27 27 29 29 28 27 27 26 26 29 28 27 26 28 29 30 31 31
53 53 53 52 52 51 49 46 46 44 41 39 41 42 42 41 38 39 38 34 32 31 30 29 28 29 29 28 28 27 27 26 26 27 25 24 24 24 25 26 27 29 28

GFSMW_sfc_temp_024.txt.gz
Temp
78 78 78 78 77 77 76 76 72 73 73 72 70 69 68 69 70 71 71 69 69 68 64 63 63 62 61 60 60 59 58 58 59 59 60 61 62 63 66 63 61 63 64
75 75 74 73 72 73 74 74 74 72 72 72 70 68 67 69 69 69 69 70 68 66 66 61 61 60 59 58 57 56 56 57 57 55 56 52 57 60 63 65 65 62 65
73 73 72 70 70 70 70 73 72 72 70 68 71 69 68 68 67 66 66 69 65 64 64 62 60 59 58 55 55 56 55 53 55 55 52 49 48 52 57 59 56 57 57
75 74 72 70 68 68 70 72 72 72 71 68 66 64 64 63 64 64 64 66 65 63 63 61 59 58 56 54 54 58 52 51 48 51 51 48 47 44 45 51 55 53 52
72 72 71 70 70 69 68 70 71 72 70 68 67 63 61 61 62 61 60 60 61 60 61 60 57 55 55 54 51 50 49 48 46 44 44 43 44 42 42 39 42 46 47
71 72 73 73 70 69 69 69 70 71 70 68 66 63 60 60 58 58 57 57 58 58 58 59 55 55 54 53 52 51 47 48 46 45 42 40 39 38 36 36 35 36 40
70 71 71 71 71 69 69 69 69 68 68 67 66 64 61 61 59 57 56 54 55 54 54 55 54 52 52 50 49 48 47 47 42 41 40 41 41 39 38 37 36 36 38
70 70 71 70 70 70 68 68 68 67 67 65 61 61 61 59 58 56 55 53 52 52 54 53 52 52 51 49 49 47 47 45 44 43 45 43 44 42 41 40 36 34 35
69 70 71 70 69 68 67 65 66 67 65 63 61 60 58 57 55 55 53 52 52 55 52 51 51 50 48 49 47 46 46 44 45 44 44 43 44 44 44 43 41 36 30
69 69 70 68 68 67 66 64 64 64 63 62 59 60 58 57 55 53 52 52 52 52 51 50 48 48 49 47 47 45 44 44 43 43 42 42 43 43 42 43 42 42 38
67 68 68 67 67 65 65 63 63 63 61 60 58 56 56 56 55 53 52 51 51 51 50 49 47 46 45 45 44 45 44 43 41 43 44 43 45 44 45 45 45 41 39
67 66 66 66 64 64 63 63 61 61 59 59 58 56 56 54 52 51 51 50 49 51 50 49 47 45 45 45 44 43 43 42 41 42 43 43 47 43 43 42 41 40 40
66 65 65 63 63 63 63 62 60 59 59 59 57 55 54 51 49 49 50 49 49 49 49 49 47 46 46 45 44 44 43 41 40 41 40 41 42 40 40 40 40 39 43
64 64 61 61 61 62 61 61 60 58 59 58 56 53 52 50 49 49 49 49 49 48 47 47 47 46 46 46 45 44 39 38 39 39 39 40 40 38 38 38 35 38 35
61 59 57 57 59 60 60 60 59 58 58 56 55 52 52 51 49 48 48 48 48 48 47 46 45 44 45 43 38 38 37 35 36 36 39 40 41 43 39 39 34 33 32
56 56 55 57 59 60 59 60 58 57 57 55 54 55 52 51 49 48 47 47 46 45 45 43 43 42 47 36 36 35 33 35 34 33 35 38 40 41 40 39 38 36 32
53 54 56 58 59 58 60 58 58 58 56 55 56 55 51 50 48 48 48 45 43 43 42 42 42 40 40 37 36 35 33 33 33 33 34 35 40 37 37 35 36 34 36
55 56 58 58 59 59 59 59 59 57 56 54 52 55 50 49 48 47 46 44 42 41 40 40 40 37 40 37 36 34 31 30 31 32 32 32 32 33 34 33 31 32 33
56 58 60 59 59 59 59 57 56 57 56 55 51 47 50 49 47 46 43 42 41 40 40 41 37 35 35 37 36 32 29 29 29 31 31 32 31 34 35 32 30 30 31
59 59 60 60 58 58 57 55 54 54 53 51 50 51 51 49 46 44 42 42 42 42 38 36 35 36 33 36 36 35 29 26 28 29 31 33 33 30 31 29 28 27 28
59 60 59 57 57 57 55 52 52 51 53 52 51 49 47 42 41 40 43 43 39 36 33 31 32 33 33 33 36 32 28 27 27 27 28 30 32 31 31 31 27 27 29
58 58 56 55 56 56 54 52 50 52 51 49 47 46 45 43 43 41 41 40 37 34 31 27 29 31 32 35 34 31 31 31 25 25 27 28 31 31 30 30 30 30 29
55 56 54 52 53 54 54 50 50 50 47 45 44 43 43 42 42 38 39 36 36 30 29 29 28 29 30 29 32 30 30 30 25 26 27 28 29 30 29 30 30 29 27
53 54 52 51 51 53 53 51 48 47 45 42 41 42 41 41 41 40 39 35 31 29 31 29 26 26 27 26 26 26 25 27 27 26 25 26 28 27 27 28 29 29 28
53 52 51 50 49 51 50 49 47 45 41 40 39 38 37 37 36 36 35 32 31 29 27 25 25 20 20 24 27 26 24 24 25 24 25 25 24 24 25 25 26 27 27
51 50 50 49 48 48 46 45 45 43 38 34 35 34 34 34 33 34 34 35 32 32 32 30 24 22 27 29 29 28 28 29 27 24 22 21 21 21 23 23 23 24 24